Flag for Germany Weather past 2 weeks in Herne, North Rhine-Westphalia, Germany

Now
39 °F

Clear.


Feels Like: 32 °F
Forecast: 40 / 51 °F
Wind: 10 mph from Southwest

Location: Dortmund / Wickede

Current Time: Mar 30, 2015 at 10:21:50 PM

Latest Report: Mar 30, 2015 at 9:50 PM


Visibility: 10 mi

Pressure: 29.80 "Hg

Humidity: 65%

Dew point: 28 °F

Location of HerneLocation

Historic Weather in Herne — Graph

°F

Herne temperature yesterday

Maximum temperature yesterday: 52 °F (at 5:50 PM)
Minimum temperature yesterday: 46 °F (at 8:50 PM)
Average temperature yesterday: 49 °F

Past Weeks' High & Low Weather Summary

 TemperatureHumidityPressure
High61 °F (Mar 17, 2:50 PM)93% (Mar 16, 6:20 AM)30.36 "Hg (Mar 16, 6:20 AM)
Low28 °F (Mar 23, 5:20 AM)39% (Mar 17, 3:20 PM)29.21 "Hg (Mar 29, 7:20 PM)
Average44 °F74%29.99 "Hg
* Reported Mar 15 8:20 PM — Mar 30 9:20 PM, Herne, Weather by CustomWeather, © 2015

Note: Actual official high and low records may vary slightly from our data, if they occured in-between our weather recording intervals... More about our weather records

Advertising

Herne weather history for previous 24 hours

 ConditionsComfort  
Time TempWeatherWind HumidityBarometerVisibility
9:20 PM
Mon, Mar 30
39 °FChilly.10 mph61%29.80 "HgN/A
8:50 PM41 °FSunny.9 mph57%29.80 "Hg10 mi
8:20 PM43 °FPassing clouds.10 mph49%29.80 "HgN/A
7:50 PM43 °FSunny.15 mph53%29.80 "Hg10 mi
7:20 PM45 °FClear.16 mph49%29.80 "HgN/A
6:50 PM45 °FPassing clouds.13 mph49%29.80 "HgN/A
6:20 PM45 °FPassing clouds.16 mph53%29.77 "HgN/A
5:50 PM45 °FPassing clouds.15 mph53%29.77 "HgN/A
5:20 PM45 °FPassing clouds.17 mph53%29.74 "HgN/A
4:50 PM45 °FPassing clouds.15 mph61%29.74 "HgN/A
4:20 PM45 °FSprinkles. Clear.16 mph61%29.71 "HgN/A
3:50 PM45 °FScattered clouds.14 mph66%29.71 "HgN/A
3:20 PM41 °FScattered clouds.17 mph70%29.68 "HgN/A
2:50 PM39 °FSprinkles. Broken clouds.15 mph81%29.68 "HgN/A
2:20 PM45 °FSprinkles. Broken clouds.20 mph66%29.65 "HgN/A
1:50 PM45 °FThundershowers. Scattered clouds.12 mph71%29.65 "HgN/A
1:20 PM45 °FThunderstorms. Partly sunny.16 mph66%29.62 "HgN/A
12:50 PM43 °FScattered showers. Scattered clouds.18 mph71%29.62 "HgN/A
12:20 PM46 °FPartly sunny.16 mph62%29.59 "HgN/A
11:50 AM45 °FPartly sunny.17 mph57%29.59 "HgN/A
11:20 AM45 °FPartly sunny.17 mph61%29.56 "HgN/A
10:50 AM43 °FScattered clouds.17 mph66%29.56 "HgN/A
10:20 AM43 °FScattered clouds.16 mph61%29.53 "HgN/A
9:50 AM43 °FScattered clouds.20 mph66%29.53 "HgN/A
9:20 AM43 °FScattered clouds.17 mph71%29.50 "HgN/A
8:50 AM43 °FScattered clouds.16 mph71%29.50 "HgN/A
8:20 AM43 °FScattered clouds.17 mph71%29.47 "HgN/A
7:50 AM43 °FPassing clouds.20 mph71%29.47 "HgN/A
7:20 AM43 °FPassing clouds.14 mph71%29.45 "HgN/A
6:50 AM41 °FPassing clouds.15 mph76%29.45 "HgN/A
6:20 AM41 °FPassing clouds.16 mph76%29.45 "HgN/A
5:50 AM41 °FPassing clouds.17 mph81%29.42 "HgN/A
5:20 AM41 °FPassing clouds.17 mph81%29.42 "HgN/A
10:50 PM
Sun, Mar 29
46 °FPassing clouds.17 mph71%29.33 "HgN/A
10:20 PM46 °FPassing clouds.20 mph76%29.30 "HgN/A
Weather by CustomWeather, © 2015

See weather overviewHow to use our weather pages